Portada
METAR-TAF:

METAR-TAF

Aeroports :

Penrhyn, Illes Cook

latitud: 9-00-52S, longitud: 158-01-57W, altitud: 2 m

Observació

L'informe es va fer fa 10 hores i 57 minuts, a les 17:00 UTC
Vent 10 kt del Est/Nord-Est
Temperatura 29°C
Humitat 79%
Pressió 1010 hPa
Visibilitat 10 km o més
Núvols disperses a una alçada de 2000 ft

METAR: NCPY 181700Z AUTO 06010KT 9999 SCT020 29/25 Q1010

Hora: 17:57 (03:57 UTC)


TAF: manca

Observacions i pronòstics meteorològics de més de 4000 aeroports (METAR i TAF).

Les estacions disponibles són els punts grocs i vermells al mapa.

Posi el ratolí al punt desitjat per veure el nom de l'estació.

Feu clic per veure les observacions i els pronòstics meteorològics.

Per canviar el mapa: feu clic els botons verds amb una creu de color negre per apropar; al botó verd amb un guió per allunyar la imatge; o en les fletxes verdes per a mapes adjacents.


METAR-TAF: